{"data":{"norad_id":57089,"epoch":"2026-09-20T21:08:59.170560Z","epoch_age_seconds":87967,"freshness":"FRESH","line1":"1 57089U 23088AT  26263.88124040  .00000075  00000+0  12234-4 0  9993","line2":"2 57089  43.0007  73.6748 0001016 276.7278  83.3458 15.27575843180352","mean_motion":15.27575843,"eccentricity":0.0001016,"inclination_deg":43.0007,"raan_deg":73.6748,"arg_perigee_deg":276.7278,"mean_anomaly_deg":83.3458,"bstar":1.2234e-5,"rev_number":18035,"period_min":94.26700524224,"perigee_km":482.36444584932,"apogee_km":483.75864139339,"semimajor_km":6861.1985436214,"source":"CELESTRAK","updated_at":"2026-09-21T09:00:33.556507Z"}}